Showing default

QPS-SAR-8 AMATERU-IV, 60542

Orbit data source: Space-Track

QPS-SAR-8 AMATERU-IV, 60542 is a payload satellite owned by QPS Labs (JP) in SSO that was launched on Fri, 16 Aug 2024 UTC via an FALCON 9 launch vehicle from the Air Force Western Test Range (AFWTR). Payload-class satellites include a variety of spacecraft equipped with specific instruments for various scientific and technological missions. These include communications satellites like Starlink; space stations such as the ISS; scientific satellites like the Hubble; Earth observation satellites from companies like Planet Labs, Umbra, and HawkEye 360; GPS; miniature CubeSats for education and research; and military/defense satellites.

Loading next visibility...
Identifier
60542, 2024-149CC
Orbit
SSO
Country
Flag of JPJP / JPN
Related business
Manufacturer
QPS Labs
Mission
Operational Commercial Radar Imaging
Bus & Motor
QSAT, Unknown motor
Mass
~120 kg wet, ~100 kg dry
Launch date (UTC)
2024-08-16 (2 years ago)
Launch vehicle
FALCON 9
Launch site
Air Force Western Test Range (AFWTR)
Object type
Payload
Rocket body
Debris
Shape & HBR
Hex Cyl + 2 Pan + 1 Dish, 1.8 m
Radar Cross Section
1.179 m², Large (>1 m²)

Expand to show TLE details & history
Last TLE update: 7 hours ago

TLE from 7 hours ago
0 QPS-SAR-8 AMATERU-IV
1 60542U 24149CC  26126.80888425  .00004940  00000-0  36452-3 0  9997
2 60542  97.6668 206.3201 0001756 216.4340 143.6766 15.03728257 94055
Epoch: 2026-05-06T19:24Z
TLE epoch observation values (Epoch: 2026-05-06T19:24:47.599Z)
Latitude
-0.00003°
Longitude
50.45772°
Altitude
559.454 km
Speed
7.581 km/s
True Right ascension
13h 45m 16s
True Declination
0° 00' 00"
Sunlit
Object was in full shadow at epoch
Visualization orbit readout
Latitude
Unknown
Longitude
Unknown
Altitude
Unknown
Speed
Unknown
Apparent Right ascension
Unknown
Apparent Declination
Unknown
Sunlit
N/A
Visualization observer readout
Local Sidereal Time
10:27:42
Azimuth
Unknown
Elevation
Unknown
Doppler factor
Unknown
Orbital elements
Apogee altitude
553.628 km
Perigee altitude
551.194 km
Semi-major axis
6,930.548 km
Eccentricity
0.00018
Inclination
97.6668°
RAAN
206.3201°
Arg. of periapsis
216.434°
True anomaly
143.68852°
Mean anomaly
143.6766°
Eccentric anomaly
143.68256°
Mean motion
3.76177 °/min
Orbital period
95.7 mins
BSTAR
0.00036452
Loading maneuver chart data...
Computing Atmospheric mass density...
Loading historical data...
Loading historical data...
Loading historical data...
Loading historical data...
Loading historical data...
Loading historical data...
Loading historical data...

Documentation

Showing up to 5 results
|